Location: Limerick
(52.6650°N, 8.6230°W)
Time: 18:40:50
(UTC+01:00)

ISS - Pass Details

Date: 23 May 2017
Orbit: 401 x 407 km, 51.6° (Epoch: 25 September)

Event Time Altitude Azimuth Distance (km) Brightness Sun altitude
Exits shadow 00:24:04 36° 149° (SSE) 684 -3.2 -15.3°
Drops below altitude 10° 00:27:01 10° 88° (E) 1,492 -1.1 -15.4°
Enters shadow 01:47:10 -20° 262° (W) 5,464 1.8 -16.7°
Maximum altitude 02:00:18 74° 175° (S) 437 -3.9 -16.5°
